KB1JDX Weather Reports


time (UTC)temp
C
wind
direction
speed
KPH
gust
KPH
rain 1hr
cm
rain 24hr
cm
rain mn
cm
humidity
%
barometer
mb
20260906051206 16 84 0.0 0.0 0.00 0.00 0.00 100 1013.0
20260906045206 16 84 0.0 0.0 0.00 0.00 0.00 100 1013.0
20260906043208 16 84 0.0 0.0 0.00 0.00 0.00 100 1012.9
20260906043104 16 84 0.0 0.0 0.00 0.00 0.00 100 1012.9
20260906041207 16 84 0.0 0.0 0.00 0.00 0.00 100 1012.9
20260906033104 16 84 0.0 0.0 0.00 0.00 0.00 100 1012.9
20260906031207 16 84 0.0 0.0 0.00 0.00 0.00 100 1012.8
20260906025207 16 84 0.0 0.0 0.00 0.00 0.00 100 1012.5
20260906023104 16 83 0.0 0.0 0.00 0.00 0.00 100 1012.6
20260906021206 16 84 0.0 0.0 0.00 0.00 0.00 100 1012.6
20260906015207 16 84 0.0 0.0 0.00 0.00 0.00 100 1012.8
20260906013206 17 310 0.0 0.0 0.00 0.00 0.00 100 1012.8
20260906013104 17 310 0.0 0.0 0.00 0.00 0.00 100 1012.8
20260906011206 17 309 0.0 0.0 0.00 0.00 0.00 100 1012.6
20260906005207 18 310 0.0 0.0 0.00 0.00 0.00 100 1012.4
20260906003207 18 310 0.0 0.0 0.00 0.00 0.00 100 1012.3
20260906003104 18 309 0.0 0.0 0.00 0.00 0.00 100 1012.1
20260906001207 18 309 0.0 0.0 0.00 0.00 0.00 100 1011.7
20260905235206 18 309 0.0 0.0 0.00 0.00 0.00 100 1011.4
20260905233206 18 309 0.0 0.0 0.00 0.00 0.00 100 1011.3
20260905233103 18 310 0.0 0.0 0.00 0.00 0.00 100 1011.3
20260905231206 19 310 0.0 0.0 0.00 0.00 0.00 100 1011.3
20260905225206 19 310 0.0 0.0 0.00 0.00 0.00 100 1011.2
20260905223206 20 309 0.0 0.0 0.00 0.00 0.00 100 1011.0
20260905223103 20 309 0.0 0.0 0.00 0.00 0.00 100 1011.0
20260905221206 20 309 0.0 0.0 0.00 0.00 0.00 100 1011.0
20260905215206 20 309 0.0 0.0 0.00 0.00 0.00 100 1010.6
20260905213207 20 309 0.0 0.0 0.00 0.00 0.00 100 1010.4
20260905213103 20 309 0.0 0.0 0.00 0.00 0.00 100 1010.4
20260905211206 20 309 0.0 0.0 0.00 0.00 0.00 100 1010.0
20260905205206 20 310 0.0 0.0 0.00 0.00 0.00 4 1010.4
20260905203206 22 309 0.0 0.0 0.00 0.00 0.00 34 1010.2
20260905203103 22 309 0.0 0.0 0.00 0.00 0.00 35 1010.2
20260905201206 22 307 0.0 0.0 0.00 0.00 0.00 37 1010.0
20260905195206 22 53 0.0 0.0 0.00 0.00 0.00 35 1009.6
20260905193207 23 53 0.0 0.0 0.00 0.00 0.00 37 1009.6
20260905193103 23 53 0.0 0.0 0.00 0.00 0.00 37 1009.5
20260905191207 23 58 0.0 0.0 0.00 0.00 0.00 40 1009.4
20260905185207 23 57 0.0 0.0 0.00 0.00 0.00 39 1009.3
20260905183209 23 57 0.0 0.0 0.00 0.00 0.00 39 1009.3
20260905183103 23 57 0.0 0.0 0.00 0.00 0.00 39 1009.3
20260905181206 23 57 0.0 0.0 0.00 0.00 0.00 39 1009.6
20260905175206 24 294 0.0 4.8 0.00 0.00 0.00 38 1009.4
20260905173206 24 296 0.0 4.8 0.00 0.00 0.00 39 1009.3
20260905173104 24 296 0.0 4.8 0.00 0.00 0.00 38 1009.3
20260905171206 24 296 0.0 4.8 0.00 0.00 0.00 33 1009.2
20260905165206 22 296 0.0 0.0 0.00 0.00 0.00 26 1009.3
20260905163206 22 296 0.0 0.0 0.00 0.00 0.00 29 1009.2
20260905163104 22 296 0.0 0.0 0.00 0.00 0.00 29 1009.3
20260905161206 22 294 0.0 0.0 0.00 0.00 0.00 33 1009.3
20260905155206 22 294 0.0 11.3 0.00 0.00 0.00 31 1009.2
20260905153206 23 294 0.0 11.3 0.00 0.00 0.00 33 1009.2
20260905153103 23 294 0.0 11.3 0.00 0.00 0.00 33 1009.2
20260905151206 23 54 0.0 11.3 0.00 0.00 0.00 31 1009.1
20260905145206 23 346 0.0 11.3 0.00 0.00 0.00 26 1009.0
20260905143206 22 289 1.6 11.3 0.00 0.00 0.00 15 1009.1
20260905143103 22 285 0.0 11.3 0.00 0.00 0.00 13 1009.1
20260905141206 21 290 0.0 11.3 0.00 0.00 0.00 6 1009.4
20260905135206 21 307 0.0 0.0 0.00 0.00 0.00 100 1009.5
20260905133206 20 293 0.0 0.0 0.00 0.00 0.00 100 1009.6
20260905133103 20 294 6.4 0.0 0.00 0.00 0.00 100 1009.6
20260905131206 18 315 0.0 0.0 0.00 0.00 0.00 100 1009.4
20260905125206 17 47 0.0 0.0 0.00 0.00 0.00 100 1009.8
20260905123207 17 47 0.0 0.0 0.00 0.00 0.00 100 1009.8
20260905123103 16 47 0.0 0.0 0.00 0.00 0.00 100 1009.8
20260905121206 16 47 0.0 0.0 0.00 0.00 0.00 100 1009.5
20260905115206 15 47 0.0 0.0 0.00 0.00 0.00 100 1009.3
20260905113207 15 47 0.0 0.0 0.00 0.00 0.00 100 1009.2
20260905113103 15 47 0.0 0.0 0.00 0.00 0.00 100 1009.2
20260905111210 14 47 0.0 0.0 0.00 0.00 0.00 100 1009.0
20260905105206 14 47 0.0 0.0 0.00 0.00 0.00 100 1008.7
20260905103206 14 47 0.0 0.0 0.00 0.00 0.00 100 1008.7
20260905103103 14 47 0.0 0.0 0.00 0.00 0.00 100 1008.7
20260905101212 14 47 0.0 0.0 0.00 0.00 0.00 100 1008.7
20260905095206 14 47 0.0 0.0 0.00 0.00 0.00 100 1008.6
20260905093206 15 47 0.0 0.0 0.00 0.00 0.00 100 1008.7
20260905093103 15 47 0.0 0.0 0.00 0.00 0.00 100 1008.7
20260905091206 15 47 0.0 0.0 0.00 0.00 0.00 100 1008.6
20260905085206 15 47 0.0 0.0 0.00 0.00 0.00 100 1008.5
20260905083208 15 47 0.0 0.0 0.00 0.00 0.00 100 1008.4
20260905083103 15 47 0.0 0.0 0.00 0.00 0.00 100 1008.5
20260905073207 15 47 0.0 0.0 0.00 0.00 0.00 100 1008.6
20260905073103 15 47 0.0 0.0 0.00 0.00 0.00 100 1008.6
20260905071206 15 47 0.0 0.0 0.00 0.00 0.00 100 1008.6
20260905065206 16 47 0.0 0.0 0.00 0.00 0.00 100 1008.7
20260905063207 16 47 0.0 0.0 0.00 0.00 0.00 100 1008.9
20260905063103 16 47 0.0 0.0 0.00 0.00 0.00 100 1008.9
20260905061206 16 47 0.0 0.0 0.00 0.00 0.00 100 1009.2
20260905055206 16 47 0.0 0.0 0.00 0.00 0.00 100 1009.3
20260905053103 16 47 0.0 0.0 0.00 0.00 0.00 100 1009.4